This is the latest recevied weather packets stored in our database for station/object DB0TBG. If no packets are shown the sender has not sent any weather packets the latest 10 day(s).
| Time | Temp. | Humidity | Pressure | Rain* | Wind** | Luminosity | Snow |
|---|---|---|---|---|---|---|---|
| 1777820029 | 24.44° C | 20% | 968 hPa | 0 mm | 0 m/s | - | - |
| 1777819430 | 24.44° C | 20% | 968 hPa | 0 mm | 0 m/s | - | - |
| 1777818828 | 25° C | 20% | 968 hPa | 0 mm | 0 m/s | - | - |
| 1777818229 | 25° C | 21% | 969 hPa | 0 mm | 0 m/s | - | - |
| 1777817629 | 25° C | 20% | 969 hPa | 0 mm | 0 m/s | - | - |
| 1777816427 | 26.11° C | 20% | 969 hPa | 0 mm | 0 m/s | - | - |
| 1777815828 | 26.11° C | 20% | 969 hPa | 0 mm | 0 m/s | - | - |
| 1777815226 | 26.11° C | 20% | 969 hPa | 0 mm | 0 m/s | - | - |
| 1777814627 | 26.11° C | 21% | 969 hPa | 0 mm | 0 m/s | - | - |
| 1777813420 | 26.11° C | 21% | 969 hPa | 0 mm | 0 m/s | - | - |
| 1777812820 | 26.11° C | 20% | 969 hPa | 0 mm | 0 m/s | - | - |
| 1777812220 | 27.22° C | 20% | 969 hPa | 0 mm | 0 m/s | - | - |
| 1777811618 | 27.78° C | 19% | 969 hPa | 0 mm | 0 m/s | - | - |
| 1777811019 | 28.33° C | 13% | 969 hPa | 0 mm | 0 m/s | - | - |
| 1777810420 | 28.89° C | 16% | 969 hPa | 0 mm | 0 m/s | - | - |
| 1777809817 | 30° C | 16% | 970 hPa | 0 mm | 0 m/s | - | - |
| 1777809216 | 29.44° C | 18% | 970 hPa | 0 mm | 0 m/s | - | - |
| 1777808617 | 28.89° C | 16% | 970 hPa | 0 mm | 0 m/s | - | - |
| 1777808013 | 28.33° C | 16% | 970 hPa | 0 mm | 0 m/s | - | - |
| 1777807414 | 27.78° C | 16% | 970 hPa | 0 mm | 0 m/s | - | - |
| 1777806814 | 27.22° C | 19% | 970 hPa | 0 mm | 0 m/s | - | - |
| 1777806212 | 26.67° C | 19% | 970 hPa | 0 mm | 0 m/s | - | - |
| 1777805611 | 27.22° C | 17% | 970 hPa | 0 mm | 0 m/s | - | - |
| 1777805012 | 27.22° C | 19% | 970 hPa | 0 mm | 0 m/s | - | - |
| 1777804410 | 26.67° C | 17% | 971 hPa | 0 mm | 0 m/s | - | - |
* Rain latest hour (hover to see other rain measurements)
** Current wind speed in m/s (hover to see current wind gust speed)